Retour au catalogue

THOR ABLESTAR DEB

ActifLEO
NORAD 329·DEBRIS·🇺🇸 United States

Lancé Jun 29, 1961 depuis Cape Canaveral Space Force Station

Loading…

Prochains Passages (prochaines 24 heures)

TLE

FraisSource: Space-Track

Époque: Sep 5, 2026, 07:12 UTC

1   329U 61015DF  26248.30024618 -.00000027  00000-0  52357-4 0  9999
2   329  66.7804 186.6706 0120165 299.9825 216.7953 13.66145355240952

Suivez THOR ABLESTAR DEB en temps réel avec AllMySat

Download on the App Store